Location: Lafig�re
(44.4503°N, 4.0357°E)
Time: 10:36:06
(UTC+00:00)

Cosmos 2150 Rocket - Pass Details

Date: 24 January 2021
Orbit: 748 x 808 km, 74.0° (Epoch: 07 March)

Event Time Altitude Azimuth Distance (km) Brightness Sun altitude
Exits shadow 04:31:49 - 358° (N) 2,457 6.6 -28.2°
Reaches altitude 10° 04:32:10 10° 0° (N) 2,346 6.5 -28.1°
Maximum altitude 04:36:38 26° 57° (ENE) 1,505 6.0 -27.3°
Drops below altitude 10° 04:41:08 10° 114° (ESE) 2,366 7.4 -26.5°
Sets 04:43:54 0° 127° (SE) 3,300 8.1 -26.0°
